Location: Gallinara
(44.0333°N, 8.2333°E)
Time: 17:32:11
(UTC+00:00)

Meteor 1-11 Rocket - Pass Details

Date: 25 September 2020
Orbit: 830 x 917 km, 81.2° (Epoch: 30 October)

Event Time Altitude Azimuth Distance (km) Brightness Sun altitude
Rises 02:54:11 0° 350° (N) 3,491 7.1 -25.8°
Reaches altitude 10° 02:56:40 10° 352° (N) 2,535 6.4 -25.4°
Maximum altitude 03:02:26 78° 79° (ENE) 884 3.8 -24.5°
Drops below altitude 10° 03:08:01 10° 166° (SSE) 2,461 6.0 -23.6°
Sets 03:10:24 0° 167° (SSE) 3,383 6.7 -23.2°
